EW6715 Weather Reports


time (UTC)temp
C
wind
direction
speed
KPH
gust
KPH
rain 1hr
cm
rain 24hr
cm
rain mn
cm
humidity
%
barometer
mb
20260504214544 23 0.0 0.0 0.00 0.00 0.00 37 1009.6
20260504213100 23 0.0 0.0 0.00 0.00 0.00 36 1009.6
20260504211544 23 0.0 0.0 0.00 0.00 0.00 37 1009.7
20260504210046 23 0.0 0.0 0.00 0.00 0.00 38 1009.8
20260504204601 23 0.0 0.0 0.00 0.00 0.00 36 1009.6
20260504203049 23 0.0 0.0 0.00 0.00 0.00 34 1009.8
20260504201548 24 0.0 0.0 0.00 0.00 0.00 35 1009.9
20260504200048 24 0.0 0.0 0.00 0.00 0.00 34 1010.3
20260504194546 25 0.0 0.0 0.00 0.00 0.00 33 1010.3
20260504193045 25 0.0 0.0 0.00 0.00 0.00 32 1010.4
20260504191544 25 0.0 0.0 0.00 0.00 0.00 34 1010.9
20260504190050 25 0.0 0.0 0.00 0.00 0.00 34 1011.2
20260504184543 24 0.0 0.0 0.00 0.00 0.00 34 1011.5
20260504183051 24 0.0 0.0 0.00 0.00 0.00 35 1011.6
20260504181549 23 0.0 0.0 0.00 0.00 0.00 35 1011.9
20260504180045 23 0.0 0.0 0.00 0.00 0.00 36 1012.2
20260504174549 22 0.0 0.0 0.00 0.00 0.00 35 1012.4
20260504173048 21 0.0 0.0 0.00 0.00 0.00 38 1012.5
20260504171548 21 0.0 0.0 0.00 0.00 0.00 37 1012.7
20260504081548 9 0.0 0.0 0.00 0.00 0.00 70 1015.4
20260504044542 8 0.0 0.0 0.00 0.00 0.00 64 1015.9
20260504043052 8 0.0 0.0 0.00 0.00 0.00 61 1016.0
20260504041547 8 0.0 0.0 0.00 0.00 0.00 59 1016.0
20260504040049 8 0.0 0.0 0.00 0.00 0.00 58 1015.8
20260504034548 9 0.0 0.0 0.00 0.00 0.00 58 1016.0
20260504033046 9 0.0 0.0 0.00 0.00 0.00 57 1015.8
20260504031545 10 0.0 0.0 0.00 0.00 0.00 54 1015.7
20260504030046 10 0.0 0.0 0.00 0.00 0.00 51 1015.7
20260504024549 10 0.0 0.0 0.00 0.00 0.00 51 1015.5
20260504023050 10 0.0 0.0 0.00 0.00 0.00 53 1015.5
20260504021546 10 0.0 0.0 0.00 0.00 0.00 53 1015.5
20260504020124 10 0.0 0.0 0.00 0.00 0.00 54 1015.4
20260504014558 11 0.0 0.0 0.00 0.00 0.00 54 1015.2
20260504013058 11 0.0 0.0 0.00 0.00 0.00 53 1015.3
20260504011550 11 0.0 0.0 0.00 0.00 0.00 48 1015.1
20260504010047 12 0.0 0.0 0.00 0.00 0.00 45 1015.1
20260504004616 12 0.0 0.0 0.00 0.00 0.00 44 1015.1
20260504003050 12 0.0 0.0 0.00 0.00 0.00 43 1014.9
20260504001615 13 0.0 0.0 0.00 0.00 0.00 41 1014.7
20260504000101 13 0.0 0.0 0.00 0.00 0.00 38 1014.6
20260503234556 14 0.0 0.0 0.00 0.00 0.00 36 1014.4
20260503233047 15 0.0 0.0 0.00 0.00 0.00 36 1014.4
20260503231547 15 0.0 0.0 0.00 0.00 0.00 33 1014.2
20260503230110 15 0.0 0.0 0.00 0.00 0.00 33 1014.2
20260503224549 15 0.0 0.0 0.00 0.00 0.00 32 1014.2
20260503223051 15 0.0 0.0 0.00 0.00 0.00 35 1014.2
20260503221554 15 0.0 0.0 0.00 0.00 0.00 32 1014.3
20260503220053 15 0.0 0.0 0.00 0.00 0.00 31 1014.2